Volver al catálogo

SL-14 R/B

ActivoPO
NORAD 11672·ROCKET BODY·🇷🇺 Russia

Lanzado Jan 23, 1980 desde Plesetsk Cosmodrome

Loading…

Próximos Pases (próximas 24 horas)

TLE

ActualizadoSource: Space-Track

Época: Sep 13, 2026, 16:51 UTC

1 11672U 80005B   26256.70234456  .00000333  00000-0  31056-4 0  9990
2 11672  82.5140 128.8855 0014143 255.1530 104.8122 14.91094582504505

Sigue SL-14 R/B en tiempo real con AllMySat

Download on the App Store